McComb, MS

5:26 AM CST on November 22, 2017 (GMT -0600)
McComb-Pike County-Lewis

Weather History for KMCB - January, 2014

Change the Weather History Date:

Saturday, January 4, 2014

  Actual Average Record
Temperature  
Mean Temperature 41 °F -  
Max Temperature 57 °F 56 °F 78 °F (1997)
Min Temperature 25 °F 34 °F 17 °F (2002)
Degree Days  
Heating Degree Days 24    
Moisture  
Dew Point 30 °F    
Average Humidity 69    
Maximum Humidity 97    
Minimum Humidity 55    
Precipitation  
Precipitation 0.00 in - - ()
Sea Level Pressure  
Sea Level Pressure 30.18 in    
Wind  
Wind Speed 4 mph (SSE)    
Max Wind Speed 15 mph    
Max Gust Speed -    
Visibility 10 miles    
Events      
Averages and records for this station are not official NWS values.
T = Trace of Precipitation, MM = Missing Value Source: NWS Daily Summary

Daily Weather History Graph

Daily Weather History Graph

Search for Another Location

Airport or City:

Trip Planner

Search our weather history database for the weather conditions in past years. The results will help you decide how hot, cold, wet, or windy it might be!

Date:

Astronomy

Jan. 04, 2014 Rise Set
Actual Time 7:01 AM CST 5:12 PM CST
Civil Twilight 6:34 AM CST 5:39 PM CST
Nautical Twilight 6:04 AM CST 6:09 PM CST
Astronomical Twilight 5:34 AM CST 6:39 PM CST
Moon 9:22 AM CST (1/4) 9:15 PM CST (1/4)
Length of Visible Light 11h 04m
Length of Day
10h 11m
Waxing Crescent, 15% of the Moon is Illuminated
Jan 4
Waxing Crescent
Jan 7
First Quarter
Jan 15
Full
Jan 23
Last Quarter
Jan 30
New

Hourly Weather History & Observations

Time (CST) Temp. Windchill Dew Point Humidity Pressure Visibility Wind Dir Wind Speed Gust Speed Precip Events Conditions
12:53 AM 30.0 °F 24.1 °F 17.1 °F 59% 30.27 in 10.0 mi SE 5.8 mph - N/A   Clear
1:53 AM 28.9 °F 25.2 °F 17.1 °F 61% 30.26 in 10.0 mi ESE 3.5 mph - N/A   Clear
2:53 AM 27.0 °F - 18.0 °F 69% 30.25 in 10.0 mi Calm Calm - N/A   Clear
3:53 AM 28.0 °F - 17.1 °F 63% 30.23 in 10.0 mi Calm Calm - N/A   Clear
4:53 AM 28.0 °F - 17.1 °F 63% 30.24 in 10.0 mi Calm Calm - N/A   Clear
5:53 AM 25.0 °F - 19.0 °F 78% 30.25 in 10.0 mi Calm Calm - N/A   Clear
6:11 AM 25.0 °F - 19.0 °F 78% 30.24 in 10.0 mi Calm Calm - N/A   Mostly Cloudy
6:53 AM 30.0 °F - 19.0 °F 64% 30.26 in 10.0 mi Calm Calm - N/A   Overcast
7:53 AM 30.9 °F 27.5 °F 19.9 °F 64% 30.27 in 10.0 mi East 3.5 mph - N/A   Overcast
8:11 AM 30.9 °F - 21.0 °F 67% 30.27 in 10.0 mi Calm Calm - N/A   Scattered Clouds
8:40 AM 32.0 °F 28.7 °F 21.0 °F 64% 30.27 in 10.0 mi SE 3.5 mph - N/A   Mostly Cloudy
8:50 AM 33.8 °F 30.8 °F 21.2 °F 60% 30.27 in 10.0 mi East 3.5 mph - N/A   Mostly Cloudy
8:53 AM 33.1 °F 30.0 °F 21.9 °F 64% 30.27 in 10.0 mi East 3.5 mph - N/A   Mostly Cloudy
9:12 AM 34.0 °F 31.0 °F 23.0 °F 64% 30.26 in 10.0 mi Variable 3.5 mph - N/A   Mostly Cloudy
9:43 AM 37.0 °F 34.5 °F 26.1 °F 65% 30.26 in 10.0 mi ESE 3.5 mph - N/A   Mostly Cloudy
9:53 AM 39.0 °F 35.7 °F 27.0 °F 62% 30.27 in 10.0 mi Variable 4.6 mph - N/A   Scattered Clouds
10:53 AM 46.0 °F 43.9 °F 32.0 °F 58% 30.24 in 10.0 mi SSW 4.6 mph - N/A   Mostly Cloudy
11:53 AM 50.0 °F - 35.1 °F 57% 30.19 in 10.0 mi Variable 4.6 mph - N/A   Overcast
12:53 PM 53.1 °F - 39.0 °F 59% 30.14 in 10.0 mi South 6.9 mph - N/A   Overcast
1:53 PM 55.9 °F - 39.9 °F 55% 30.12 in 10.0 mi South 8.1 mph - N/A   Overcast
2:53 PM 57.0 °F - 41.0 °F 55% 30.10 in 10.0 mi South 10.4 mph - N/A   Overcast
3:53 PM 57.0 °F - 41.0 °F 55% 30.08 in 10.0 mi South 15.0 mph - N/A   Partly Cloudy
4:53 PM 54.0 °F - 41.0 °F 62% 30.07 in 10.0 mi South 8.1 mph - N/A   Clear
5:53 PM 48.9 °F - 39.9 °F 71% 30.07 in 10.0 mi Calm Calm - N/A   Clear
6:53 PM 46.9 °F - 41.0 °F 80% 30.05 in 10.0 mi SSE 4.6 mph - N/A   Clear
7:53 PM 50.0 °F - 43.0 °F 77% 30.05 in 10.0 mi SSE 9.2 mph - N/A   Clear
8:53 PM 48.9 °F - 44.1 °F 83% 30.06 in 10.0 mi SSE 9.2 mph - N/A   Clear
9:53 PM 48.0 °F - 46.0 °F 93% 30.05 in 8.0 mi SSE 9.2 mph - N/A   Clear
10:39 PM 46.9 °F - 46.0 °F 97% 30.04 in 7.0 mi SSE 5.8 mph - N/A   Mostly Cloudy
10:53 PM 46.9 °F - 45.0 °F 93% 30.04 in 6.0 mi SSE 5.8 mph - N/A   Mostly Cloudy
11:53 PM 46.9 °F - 46.0 °F 97% 30.03 in 4.0 mi SSE 5.8 mph - N/A   Overcast